| time (UTC) | temp C | wind direction | speed KPH | gust KPH | rain 1hr cm | rain 24hr cm | rain mn cm | humidity % | barometer mb |
| 20260906075403 | 9 | 28 | 6.4 | 29.0 | 0.00 | 0.23 | 0.00 | 74 | 1008.2 |
| 20260906074503 | 9 | 34 | 4.8 | 27.4 | 0.00 | 0.23 | 0.00 | 75 | 1008.1 |
| 20260906073603 | 9 | 5 | 9.7 | 35.4 | 0.00 | 0.23 | 0.00 | 74 | 1008.3 |
| 20260906072703 | 8 | 356 | 11.3 | 33.8 | 0.00 | 0.23 | 0.00 | 75 | 1008.1 |
| 20260906071803 | 8 | 344 | 6.4 | 25.7 | 0.00 | 0.23 | 0.00 | 76 | 1007.9 |
| 20260906070903 | 8 | 6 | 9.7 | 24.1 | 0.00 | 0.23 | 0.00 | 76 | 1007.7 |
| 20260906070003 | 8 | 349 | 6.4 | 29.0 | 0.00 | 0.23 | 0.00 | 76 | 1007.7 |
| 20260906065403 | 9 | 18 | 6.4 | 27.4 | 0.00 | 0.23 | 0.00 | 78 | 1007.5 |
| 20260906064713 | 9 | 51 | 3.2 | 24.1 | 0.00 | 0.23 | 0.00 | 77 | 1007.5 |
| 20260906063603 | 8 | 22 | 1.6 | 27.4 | 0.00 | 0.23 | 0.00 | 82 | 1007.5 |
| 20260906062913 | 8 | 4 | 6.4 | 22.5 | 0.00 | 0.23 | 0.00 | 82 | 1007.1 |
| 20260906061803 | 8 | 351 | 8.0 | 32.2 | 0.00 | 0.23 | 0.00 | 84 | 1006.9 |
| 20260906060903 | 8 | 343 | 6.4 | 22.5 | 0.00 | 0.23 | 0.00 | 84 | 1007.0 |
| 20260906060003 | 8 | 2 | 3.2 | 17.7 | 0.00 | 0.23 | 0.00 | 86 | 1006.7 |
| 20260906055616 | 8 | 349 | 3.2 | 17.7 | 0.00 | 0.23 | 0.00 | 87 | 1006.7 |
| 20260906054714 | 8 | 352 | 6.4 | 17.7 | 0.00 | 0.23 | 0.00 | 87 | 1006.7 |
| 20260906053603 | 8 | 8 | 3.2 | 17.7 | 0.00 | 0.23 | 0.00 | 88 | 1006.4 |
| 20260906052703 | 8 | 355 | 6.4 | 17.7 | 0.00 | 0.23 | 0.00 | 89 | 1006.3 |
| 20260906051804 | 8 | 354 | 3.2 | 17.7 | 0.00 | 0.23 | 0.00 | 89 | 1006.4 |
| 20260906050903 | 8 | 325 | 4.8 | 17.7 | 0.00 | 0.23 | 0.00 | 89 | 1006.4 |
| 20260906050003 | 8 | 333 | 3.2 | 14.5 | 0.00 | 0.23 | 0.00 | 89 | 1006.2 |
| 20260906045617 | 8 | 336 | 3.2 | 14.5 | 0.00 | 0.23 | 0.00 | 90 | 1006.2 |
| 20260906044503 | 8 | 330 | 1.6 | 17.7 | 0.00 | 0.23 | 0.00 | 90 | 1006.3 |
| 20260906043603 | 8 | 336 | 6.4 | 17.7 | 0.00 | 0.23 | 0.00 | 91 | 1006.2 |
| 20260906042703 | 8 | 336 | 6.4 | 17.7 | 0.00 | 0.23 | 0.00 | 92 | 1005.9 |
| 20260906041803 | 8 | 352 | 3.2 | 17.7 | 0.00 | 0.23 | 0.00 | 93 | 1006.0 |
| 20260906040905 | 8 | 359 | 4.8 | 12.9 | 0.00 | 0.23 | 0.00 | 94 | 1006.0 |
| 20260906040004 | 8 | 341 | 3.2 | 14.5 | 0.00 | 0.23 | 0.00 | 94 | 1006.0 |
| 20260906035403 | 8 | 344 | 6.4 | 14.5 | 0.00 | 0.23 | 0.00 | 94 | 1006.0 |
| 20260906034503 | 8 | 314 | 4.8 | 11.3 | 0.00 | 0.23 | 0.00 | 95 | 1005.8 |
| 20260906033603 | 8 | 342 | 4.8 | 14.5 | 0.00 | 0.23 | 0.00 | 95 | 1005.7 |
| 20260906032703 | 8 | 348 | 3.2 | 11.3 | 0.00 | 0.23 | 0.00 | 95 | 1005.9 |
| 20260906031803 | 8 | 339 | 3.2 | 17.7 | 0.00 | 0.23 | 0.00 | 95 | 1005.9 |
| 20260906030903 | 8 | 337 | 1.6 | 17.7 | 0.00 | 0.23 | 0.00 | 95 | 1005.7 |
| 20260906030003 | 8 | 339 | 4.8 | 11.3 | 0.00 | 0.23 | 0.00 | 95 | 1005.6 |
| 20260906025403 | 8 | 333 | 1.6 | 9.7 | 0.00 | 0.23 | 0.00 | 95 | 1005.5 |
| 20260906024503 | 8 | 347 | 3.2 | 11.3 | 0.00 | 0.23 | 0.00 | 96 | 1005.5 |
| 20260906023603 | 8 | 344 | 1.6 | 14.5 | 0.00 | 0.23 | 0.00 | 96 | 1005.4 |
| 20260906022703 | 8 | 339 | 6.4 | 12.9 | 0.00 | 0.23 | 0.00 | 96 | 1005.2 |
| 20260906021803 | 8 | 339 | 4.8 | 11.3 | 0.00 | 0.23 | 0.00 | 96 | 1005.1 |
| 20260906021115 | 8 | 338 | 1.6 | 12.9 | 0.00 | 0.23 | 0.00 | 97 | 1005.1 |
| 20260906020212 | 8 | 349 | 4.8 | 12.9 | 0.00 | 0.23 | 0.00 | 97 | 1005.2 |
| 20260906015614 | 8 | 337 | 6.4 | 12.9 | 0.00 | 0.23 | 0.00 | 97 | 1005.2 |
| 20260906014503 | 8 | 1 | 1.6 | 12.9 | 0.00 | 0.23 | 0.00 | 97 | 1005.0 |
| 20260906013603 | 8 | 6 | 3.2 | 6.4 | 0.00 | 0.23 | 0.00 | 97 | 1004.9 |
| 20260906012703 | 8 | 354 | 0.0 | 11.3 | 0.00 | 0.23 | 0.00 | 98 | 1004.7 |
| 20260906011803 | 8 | 8 | 1.6 | 12.9 | 0.00 | 0.23 | 0.00 | 98 | 1004.9 |
| 20260906010903 | 8 | 352 | 3.2 | 12.9 | 0.00 | 0.23 | 0.00 | 98 | 1004.7 |
| 20260906010213 | 8 | 335 | 4.8 | 11.3 | 0.00 | 0.23 | 0.00 | 98 | 1004.6 |
| 20260906005403 | 8 | 2 | 3.2 | 12.9 | 0.00 | 0.23 | 0.00 | 97 | 1004.6 |
| 20260906004503 | 8 | 4 | 3.2 | 11.3 | 0.00 | 0.23 | 0.00 | 97 | 1004.7 |
| 20260906003603 | 8 | 356 | 3.2 | 11.3 | 0.00 | 0.23 | 0.00 | 97 | 1004.4 |
| 20260906002703 | 8 | 6 | 1.6 | 9.7 | 0.00 | 0.23 | 0.00 | 97 | 1004.6 |
| 20260906001803 | 8 | 23 | 1.6 | 14.5 | 0.00 | 0.23 | 0.00 | 97 | 1004.7 |
| 20260906000903 | 8 | 356 | 4.8 | 11.3 | 0.00 | 0.23 | 0.00 | 96 | 1004.3 |
| 20260906000003 | 8 | 28 | 4.8 | 9.7 | 0.00 | 0.23 | 0.00 | 96 | 1004.3 |
| 20260905235403 | 8 | 38 | 3.2 | 12.9 | 0.00 | 0.23 | 0.00 | 96 | 1004.1 |
| 20260905234503 | 8 | 27 | 3.2 | 14.5 | 0.00 | 0.23 | 0.00 | 96 | 1004.1 |
| 20260905233603 | 8 | 19 | 1.6 | 17.7 | 0.00 | 0.23 | 0.00 | 96 | 1004.3 |
| 20260905232703 | 8 | 25 | 6.4 | 14.5 | 0.00 | 0.23 | 0.00 | 97 | 1004.1 |
| 20260905231803 | 8 | 9 | 1.6 | 14.5 | 0.00 | 0.23 | 0.00 | 96 | 1004.0 |
| 20260905230903 | 8 | 18 | 0.0 | 11.3 | 0.00 | 0.23 | 0.00 | 96 | 1003.9 |
| 20260905230003 | 8 | 23 | 3.2 | 11.3 | 0.00 | 0.23 | 0.00 | 97 | 1003.8 |
| 20260905225616 | 8 | 28 | 3.2 | 12.9 | 0.00 | 0.23 | 0.00 | 97 | 1003.7 |
| 20260905224503 | 8 | 48 | 3.2 | 11.3 | 0.00 | 0.23 | 0.00 | 96 | 1003.5 |
| 20260905223815 | 8 | 40 | 0.0 | 20.9 | 0.00 | 0.23 | 0.00 | 97 | 1003.4 |
| 20260905222703 | 9 | 3 | 0.0 | 17.7 | 0.00 | 0.23 | 0.00 | 97 | 1003.4 |
| 20260905221803 | 9 | 353 | 4.8 | 11.3 | 0.00 | 0.23 | 0.00 | 96 | 1003.4 |
| 20260905221113 | 9 | 4 | 3.2 | 17.7 | 0.00 | 0.23 | 0.00 | 95 | 1003.4 |
| 20260905220003 | 9 | 20 | 0.0 | 14.5 | 0.00 | 0.23 | 0.00 | 94 | 1003.1 |
| 20260905215403 | 9 | 38 | 3.2 | 12.9 | 0.00 | 0.23 | 0.00 | 95 | 1003.0 |
| 20260905214714 | 9 | 38 | 1.6 | 9.7 | 0.00 | 0.23 | 0.00 | 95 | 1003.0 |
| 20260905213603 | 9 | 1 | 1.6 | 9.7 | 0.00 | 0.23 | 0.00 | 95 | 1002.8 |
| 20260905212703 | 9 | 4 | 3.2 | 6.4 | 0.00 | 0.23 | 0.00 | 95 | 1002.9 |
| 20260905211805 | 9 | 345 | 1.6 | 6.4 | 0.00 | 0.23 | 0.00 | 95 | 1002.8 |
| 20260905210903 | 9 | 5 | 0.0 | 12.9 | 0.00 | 0.23 | 0.00 | 95 | 1002.8 |
| 20260905210004 | 9 | 16 | 1.6 | 6.4 | 0.00 | 0.23 | 0.00 | 95 | 1002.6 |
| 20260905205403 | 9 | 8 | 0.0 | 11.3 | 0.00 | 0.23 | 0.23 | 95 | 1002.6 |
| 20260905204714 | 9 | 14 | 0.0 | 11.3 | 0.00 | 0.23 | 0.23 | 95 | 1002.5 |
| 20260905203603 | 9 | 359 | 3.2 | 11.3 | 0.00 | 0.23 | 0.23 | 95 | 1002.5 |
| 20260905202703 | 9 | 57 | 3.2 | 11.3 | 0.00 | 0.23 | 0.23 | 94 | 1002.5 |
| 20260905201803 | 9 | 37 | 1.6 | 11.3 | 0.00 | 0.23 | 0.23 | 94 | 1002.4 |
| 20260905200903 | 9 | 26 | 0.0 | 9.7 | 0.00 | 0.23 | 0.23 | 94 | 1002.4 |
| 20260905200216 | 9 | 24 | 3.2 | 11.3 | 0.00 | 0.23 | 0.23 | 94 | 1002.4 |
| 20260905195403 | 9 | 28 | 0.0 | 9.7 | 0.00 | 0.23 | 0.23 | 95 | 1002.2 |
| 20260905194503 | 9 | 35 | 0.0 | 6.4 | 0.00 | 0.23 | 0.23 | 96 | 1002.3 |
| 20260905193603 | 9 | 14 | 1.6 | 12.9 | 0.00 | 0.23 | 0.23 | 97 | 1002.1 |
| 20260905192915 | 9 | 7 | 3.2 | 12.9 | 0.00 | 0.23 | 0.23 | 97 | 1001.9 |
| 20260905191803 | 10 | 354 | 3.2 | 6.4 | 0.00 | 0.23 | 0.23 | 95 | 1002.3 |
| 20260905191114 | 10 | 20 | 0.0 | 9.7 | 0.00 | 0.23 | 0.23 | 94 | 1002.0 |
| 20260905190003 | 10 | 30 | 3.2 | 12.9 | 0.00 | 0.23 | 0.23 | 93 | 1002.0 |
| 20260905185403 | 10 | 18 | 1.6 | 14.5 | 0.00 | 0.23 | 0.23 | 93 | 1001.8 |
| 20260905184503 | 10 | 29 | 3.2 | 17.7 | 0.00 | 0.23 | 0.23 | 93 | 1001.6 |
| 20260905183813 | 10 | 35 | 3.2 | 12.9 | 0.00 | 0.23 | 0.23 | 93 | 1001.7 |
| 20260905182915 | 10 | 40 | 3.2 | 12.9 | 0.00 | 0.23 | 0.23 | 93 | 1001.7 |
| 20260905181803 | 10 | 50 | 3.2 | 17.7 | 0.00 | 0.23 | 0.23 | 93 | 1001.7 |
| 20260905180903 | 10 | 40 | 3.2 | 17.7 | 0.00 | 0.23 | 0.23 | 93 | 1001.6 |
| 20260905180003 | 10 | 18 | 3.2 | 17.7 | 0.00 | 0.23 | 0.23 | 92 | 1001.6 |
| 20260905175403 | 10 | 50 | 0.0 | 11.3 | 0.00 | 0.23 | 0.23 | 92 | 1001.4 |
| 20260905174503 | 10 | 26 | 3.2 | 17.7 | 0.00 | 0.23 | 0.23 | 92 | 1001.2 |
| 20260905173603 | 10 | 352 | 3.2 | 17.7 | 0.00 | 0.23 | 0.23 | 93 | 1001.0 |
| 20260905172703 | 10 | 354 | 1.6 | 20.9 | 0.00 | 0.23 | 0.23 | 93 | 1001.1 |
| 20260905171803 | 10 | 9 | 8.0 | 22.5 | 0.00 | 0.23 | 0.23 | 92 | 1000.8 |
| 20260905170903 | 10 | 30 | 3.2 | 17.7 | 0.00 | 0.23 | 0.23 | 93 | 1000.8 |
| 20260905170003 | 10 | 28 | 4.8 | 17.7 | 0.00 | 0.23 | 0.23 | 92 | 1000.5 |
| 20260905165403 | 10 | 41 | 6.4 | 20.9 | 0.00 | 0.23 | 0.23 | 92 | 1000.5 |
| 20260905164503 | 11 | 64 | 3.2 | 6.4 | 0.00 | 0.23 | 0.23 | 92 | 1000.6 |
| 20260905163603 | 11 | 17 | 1.6 | 14.5 | 0.00 | 0.23 | 0.23 | 92 | 1000.3 |
| 20260905162703 | 11 | 34 | 3.2 | 17.7 | 0.00 | 0.23 | 0.23 | 92 | 1000.2 |
| 20260905161803 | 11 | 49 | 0.0 | 11.3 | 0.00 | 0.23 | 0.23 | 92 | 1000.0 |
| 20260905161116 | 11 | 28 | 3.2 | 11.3 | 0.00 | 0.23 | 0.23 | 92 | 1000.0 |
| 20260905160003 | 11 | 31 | 1.6 | 22.5 | 0.00 | 0.23 | 0.23 | 92 | 1000.1 |
| 20260905155403 | 11 | 29 | 3.2 | 22.5 | 0.00 | 0.23 | 0.23 | 92 | 1000.1 |
| 20260905154503 | 11 | 23 | 1.6 | 17.7 | 0.00 | 0.23 | 0.23 | 94 | 1000.0 |
| 20260905153603 | 11 | 355 | 4.8 | 14.5 | 0.00 | 0.23 | 0.23 | 94 | 999.5 |
| 20260905152703 | 11 | 358 | 3.2 | 12.9 | 0.00 | 0.23 | 0.23 | 94 | 999.5 |
| 20260905151803 | 11 | 32 | 1.6 | 12.9 | 0.00 | 0.23 | 0.23 | 94 | 999.4 |
| 20260905150903 | 11 | 24 | 3.2 | 17.7 | 0.00 | 0.23 | 0.23 | 94 | 999.4 |
| 20260905150003 | 11 | 39 | 1.6 | 14.5 | 0.00 | 0.23 | 0.23 | 96 | 999.2 |
| 20260905145404 | 12 | 41 | 3.2 | 6.4 | 0.00 | 0.23 | 0.23 | 96 | 999.5 |
| 20260905144503 | 12 | 341 | 3.2 | 11.3 | 0.05 | 0.23 | 0.23 | 96 | 999.0 |
| 20260905143604 | 12 | 5 | 1.6 | 12.9 | 0.10 | 0.23 | 0.23 | 97 | 998.9 |
| 20260905142706 | 11 | 15 | 3.2 | 12.9 | 0.10 | 0.23 | 0.23 | 97 | 999.0 |
| 20260905141803 | 12 | 358 | 4.8 | 11.3 | 0.10 | 0.23 | 0.23 | 97 | 998.6 |
| 20260905140903 | 12 | 31 | 1.6 | 9.7 | 0.10 | 0.23 | 0.23 | 97 | 998.6 |
| 20260905140004 | 11 | 13 | 0.0 | 11.3 | 0.10 | 0.23 | 0.23 | 97 | 998.8 |
| 20260905135403 | 11 | 11 | 1.6 | 22.5 | 0.10 | 0.23 | 0.23 | 96 | 998.6 |
| 20260905134504 | 13 | 355 | 8.0 | 22.5 | 0.03 | 0.18 | 0.18 | 89 | 998.7 |
| 20260905133603 | 13 | 18 | 0.0 | 3.2 | 0.00 | 0.15 | 0.15 | 92 | 998.4 |
| 20260905132703 | 12 | 14 | 1.6 | 17.7 | 0.00 | 0.15 | 0.15 | 94 | 998.4 |
| 20260905131803 | 13 | 346 | 6.4 | 14.5 | 0.00 | 0.15 | 0.15 | 86 | 998.2 |
| 20260905130903 | 14 | 351 | 3.2 | 14.5 | 0.00 | 0.15 | 0.15 | 82 | 998.2 |
| 20260905130004 | 13 | 319 | 4.8 | 14.5 | 0.00 | 0.15 | 0.15 | 84 | 998.0 |
| 20260905125403 | 13 | 332 | 3.2 | 11.3 | 0.00 | 0.15 | 0.15 | 84 | 998.0 |
| 20260905124503 | 13 | 335 | 3.2 | 9.7 | 0.00 | 0.15 | 0.15 | 84 | 997.9 |
| 20260905123603 | 13 | 359 | 1.6 | 17.7 | 0.00 | 0.15 | 0.15 | 84 | 997.9 |
| 20260905122703 | 14 | 309 | 3.2 | 11.3 | 0.00 | 0.15 | 0.15 | 85 | 997.9 |
| 20260905121803 | 14 | 308 | 3.2 | 11.3 | 0.00 | 0.15 | 0.15 | 84 | 997.8 |
| 20260905120903 | 15 | 301 | 3.2 | 6.4 | 0.00 | 0.15 | 0.15 | 85 | 997.6 |
| 20260905120003 | 14 | 312 | 3.2 | 12.9 | 0.00 | 0.15 | 0.15 | 87 | 997.6 |
| 20260905115403 | 13 | 296 | 3.2 | 6.4 | 0.00 | 0.15 | 0.15 | 87 | 997.5 |
| 20260905114503 | 13 | 299 | 3.2 | 6.4 | 0.00 | 0.15 | 0.15 | 89 | 997.6 |
| 20260905113812 | 13 | 304 | 3.2 | 6.4 | 0.00 | 0.15 | 0.15 | 89 | 997.5 |
| 20260905112915 | 13 | 318 | 3.2 | 6.4 | 0.00 | 0.15 | 0.15 | 92 | 997.4 |
| 20260905111803 | 12 | 324 | 4.8 | 9.7 | 0.00 | 0.15 | 0.15 | 92 | 997.6 |
| 20260905110903 | 12 | 334 | 1.6 | 12.9 | 0.10 | 0.15 | 0.15 | 96 | 997.6 |
| 20260905110003 | 12 | 334 | 1.6 | 12.9 | 0.15 | 0.15 | 0.15 | 96 | 997.3 |
| 20260905105403 | 12 | 295 | 3.2 | 6.4 | 0.15 | 0.15 | 0.15 | 96 | 997.4 |
| 20260905104716 | 12 | 296 | 3.2 | 9.7 | 0.15 | 0.15 | 0.15 | 96 | 997.2 |
| 20260905103603 | 12 | 325 | 3.2 | 6.4 | 0.15 | 0.15 | 0.15 | 98 | 997.3 |
| 20260905102703 | 12 | 358 | 1.6 | 9.7 | 0.15 | 0.15 | 0.15 | 98 | 997.2 |
| 20260905102013 | 11 | 307 | 1.6 | 11.3 | 0.15 | 0.15 | 0.15 | 98 | 997.1 |
| 20260905100904 | 12 | 308 | 1.6 | 9.7 | 0.05 | 0.05 | 0.05 | 94 | 996.9 |
| 20260905100217 | 12 | 300 | 3.2 | 6.4 | 0.00 | 0.00 | 0.00 | 91 | 997.0 |
| 20260905095403 | 12 | 298 | 3.2 | 6.4 | 0.00 | 0.00 | 0.00 | 91 | 996.9 |
| 20260905094503 | 12 | 309 | 1.6 | 6.4 | 0.00 | 0.00 | 0.00 | 90 | 996.8 |
| 20260905093603 | 12 | 316 | 1.6 | 6.4 | 0.00 | 0.00 | 0.00 | 90 | 996.7 |
| 20260905092703 | 12 | 327 | 3.2 | 9.7 | 0.00 | 0.00 | 0.00 | 91 | 996.8 |
| 20260905091803 | 12 | 335 | 3.2 | 6.4 | 0.00 | 0.00 | 0.00 | 92 | 996.9 |
| 20260905090903 | 12 | 294 | 3.2 | 6.4 | 0.00 | 0.00 | 0.00 | 93 | 996.8 |
| 20260905090003 | 12 | 313 | 3.2 | 6.4 | 0.00 | 0.00 | 0.00 | 96 | 996.8 |
| 20260905085405 | 12 | 292 | 3.2 | 6.4 | 0.00 | 0.00 | 0.00 | 96 | 996.7 |
| 20260905084504 | 12 | 310 | 3.2 | 9.7 | 0.00 | 0.00 | 0.00 | 98 | 996.8 |
| 20260905083603 | 11 | 311 | 3.2 | 9.7 | 0.00 | 0.00 | 0.00 | 99 | 996.6 |
| 20260905082703 | 11 | 301 | 3.2 | 6.4 | 0.00 | 0.00 | 0.00 | 99 | 996.5 |
| 20260905081803 | 11 | 310 | 1.6 | 6.4 | 0.00 | 0.00 | 0.00 | 99 | 996.7 |
| 20260905080903 | 11 | 313 | 1.6 | 6.4 | 0.00 | 0.00 | 0.00 | 99 | 996.6 |
| 20260905080004 | 11 | 311 | 3.2 | 6.4 | 0.00 | 0.00 | 0.00 | 99 | 996.5 |